TimeMST,TemperatureF,Dew PointF,Humidity,Sea Level PressureIn,VisibilityMPH,Wind Direction,Wind SpeedMPH,Gust SpeedMPH,PrecipitationIn,Events,Conditions,WindDirDegrees,DateUTC
12:23 AM,24.8,24.8,100,29.79,0.5,ESE,5.8,-,N/A,Fog,Light Freezing Fog,120,2012-12-13 07:23:00
12:38 AM,24.8,23.0,93,29.79,0.5,SE,6.9,-,N/A,Fog,Light Freezing Fog,140,2012-12-13 07:38:00
12:49 AM,21.2,21.2,100,29.79,2.5,SSE,6.9,-,N/A,,Mostly Cloudy,150,2012-12-13 07:49:00
12:54 AM,21.9,21.0,96,29.89,10.0,SE,3.5,-,N/A,,Mostly Cloudy,140,2012-12-13 07:54:00
1:01 AM,21.2,19.4,93,29.78,10.0,ESE,4.6,-,N/A,,Scattered Clouds,110,2012-12-13 08:01:00
1:54 AM,19.9,18.0,92,29.90,10.0,East,5.8,-,N/A,,Clear,100,2012-12-13 08:54:00
2:54 AM,23.0,21.0,92,29.89,10.0,SE,5.8,-,N/A,,Overcast,130,2012-12-13 09:54:00
3:54 AM,21.0,19.9,96,29.90,10.0,ESE,3.5,-,N/A,,Mostly Cloudy,110,2012-12-13 10:54:00
4:54 AM,28.0,24.1,85,29.89,10.0,SW,8.1,-,N/A,,Overcast,230,2012-12-13 11:54:00
5:54 AM,24.1,21.0,88,29.89,10.0,SW,11.5,-,N/A,,Partly Cloudy,220,2012-12-13 12:54:00
6:54 AM,24.1,19.9,84,29.91,10.0,SW,12.7,-,N/A,,Scattered Clouds,230,2012-12-13 13:54:00
7:54 AM,24.1,19.0,81,29.91,10.0,SW,12.7,-,N/A,,Clear,220,2012-12-13 14:54:00
8:54 AM,25.0,19.0,78,29.92,10.0,SW,13.8,-,N/A,,Clear,220,2012-12-13 15:54:00
9:54 AM,28.9,21.0,72,29.90,10.0,SW,11.5,-,N/A,,Clear,220,2012-12-13 16:54:00
10:54 AM,30.9,21.0,67,29.89,10.0,SW,16.1,-,N/A,,Clear,220,2012-12-13 17:54:00
11:54 AM,32.0,21.0,64,29.86,10.0,WSW,11.5,-,N/A,,Clear,240,2012-12-13 18:54:00
12:54 PM,34.0,19.9,56,29.85,10.0,WSW,15.0,-,N/A,,Clear,240,2012-12-13 19:54:00
1:54 PM,35.1,18.0,50,29.83,10.0,WSW,19.6,-,N/A,,Clear,240,2012-12-13 20:54:00
2:54 PM,34.0,18.0,52,29.81,10.0,SW,19.6,-,N/A,,Clear,220,2012-12-13 21:54:00
6:54 PM,30.9,15.1,52,29.79,10.0,SW,17.3,-,N/A,,Clear,220,2012-12-14 01:54:00
7:54 PM,30.0,16.0,56,29.79,10.0,SW,16.1,-,N/A,,Clear,230,2012-12-14 02:54:00
8:54 PM,28.9,16.0,58,29.79,10.0,SW,16.1,-,N/A,,Clear,230,2012-12-14 03:54:00
9:54 PM,27.0,16.0,63,29.78,10.0,SW,13.8,-,N/A,,Clear,230,2012-12-14 04:54:00
10:54 PM,25.0,16.0,69,29.77,10.0,WSW,13.8,-,N/A,,Clear,240,2012-12-14 05:54:00
11:54 PM,28.0,18.0,66,29.75,10.0,WSW,12.7,-,N/A,,Clear,240,2012-12-14 06:54:00